SVR2803 UUDD-UCFM

Flight info

Callsign SVR2803
Flight time N/A
Altitude 33000
Route K0841F330 TOGMO4Q TOGMO M56 BEKAS L163 SIVKO L728 GEDSA L147 BASAN KALIN1
Aircraft A321/M-SDE3FGHIRWY/LB1

Departure

Time 2026-04-30 21:12
Airport Domodedovo International Airport (UUDD)

Arrival

Time N/A
Airport Manas International Airport (UCFM)
Time Latitude Longitude Altitude Speed Heading
2026-04-30 20:18 55.41546 37.90520 578 ft 0 kts 37°
2026-04-30 20:56 55.41537 37.90509 580 ft 8 kts 37°
2026-04-30 20:56 55.41467 37.90520 574 ft 8 kts 259°
2026-04-30 20:57 55.41458 37.90607 577 ft 8 kts 308°
2026-04-30 20:57 55.41426 37.90682 576 ft 8 kts 307°
2026-04-30 20:57 55.41394 37.90756 579 ft 8 kts 308°
2026-04-30 20:58 55.41328 37.90902 578 ft 8 kts 270°
2026-04-30 20:58 55.41302 37.90923 575 ft 2 kts 168°
2026-04-30 20:58 55.41302 37.90924 575 ft 0 kts 168°
2026-04-30 21:01 55.41300 37.90924 575 ft 1 kts 168°
2026-04-30 21:02 55.41287 37.90929 577 ft 3 kts 169°
2026-04-30 21:02 55.41259 37.90907 574 ft 7 kts 228°
2026-04-30 21:02 55.41225 37.90826 569 ft 10 kts 237°
2026-04-30 21:02 55.41179 37.90698 565 ft 15 kts 238°
2026-04-30 21:03 55.41124 37.90554 568 ft 13 kts 236°
2026-04-30 21:03 55.41076 37.90427 569 ft 12 kts 236°
2026-04-30 21:03 55.41040 37.90311 569 ft 10 kts 260°
2026-04-30 21:03 55.41025 37.90180 572 ft 12 kts 238°
2026-04-30 21:04 55.40970 37.90038 572 ft 15 kts 236°
2026-04-30 21:04 55.40916 37.89898 570 ft 13 kts 236°
2026-04-30 21:04 55.40829 37.89674 572 ft 12 kts 236°
2026-04-30 21:05 55.40776 37.89569 569 ft 12 kts 212°
2026-04-30 21:05 55.40713 37.89468 576 ft 13 kts 235°
2026-04-30 21:05 55.40652 37.89357 571 ft 13 kts 195°
2026-04-30 21:05 55.40574 37.89424 569 ft 13 kts 145°
2026-04-30 21:06 55.40500 37.89512 570 ft 13 kts 146°
2026-04-30 21:06 55.40426 37.89600 567 ft 13 kts 146°
2026-04-30 21:06 55.40354 37.89687 565 ft 13 kts 146°
2026-04-30 21:06 55.40283 37.89773 559 ft 12 kts 146°
2026-04-30 21:07 55.40213 37.89856 560 ft 12 kts 145°
2026-04-30 21:07 55.40145 37.89939 563 ft 12 kts 146°
2026-04-30 21:07 55.40078 37.90020 558 ft 12 kts 146°
2026-04-30 21:07 55.40011 37.90100 557 ft 12 kts 145°
2026-04-30 21:08 55.39945 37.90180 557 ft 11 kts 145°
2026-04-30 21:08 55.39880 37.90257 550 ft 11 kts 146°
2026-04-30 21:08 55.39817 37.90332 548 ft 11 kts 146°
2026-04-30 21:08 55.39756 37.90406 550 ft 10 kts 146°
2026-04-30 21:09 55.39697 37.90476 548 ft 10 kts 146°
2026-04-30 21:09 55.39640 37.90545 547 ft 10 kts 146°
2026-04-30 21:09 55.39604 37.90561 544 ft 2 kts 239°
2026-04-30 21:09 55.39594 37.90528 544 ft 6 kts 241°
2026-04-30 21:10 55.39566 37.90441 544 ft 9 kts 239°
2026-04-30 21:10 55.39538 37.90338 542 ft 9 kts 264°
2026-04-30 21:10 55.39571 37.90266 543 ft 7 kts 327°
2026-04-30 21:10 55.39577 37.90260 543 ft 0 kts 328°
2026-04-30 21:11 55.39577 37.90259 543 ft 2 kts 328°
2026-04-30 21:11 55.39788 37.90009 547 ft 73 kts 326°
2026-04-30 21:11 55.40383 37.89289 567 ft 132 kts 326°
2026-04-30 21:12 55.41281 37.88213 623 ft 174 kts 326°
2026-04-30 21:12 55.42272 37.87028 1349 ft 171 kts 319°
2026-04-30 21:12 55.43089 37.85512 2109 ft 171 kts 312°
2026-04-30 21:12 55.43874 37.83905 2582 ft 179 kts 311°
2026-04-30 21:13 55.44731 37.82138 2765 ft 199 kts 311°
2026-04-30 21:13 55.45615 37.80202 3164 ft 206 kts 301°
2026-04-30 21:13 55.46027 37.77715 3376 ft 224 kts 270°
2026-04-30 21:13 55.45588 37.74971 3534 ft 248 kts 238°
2026-04-30 21:14 55.44589 37.72397 3927 ft 260 kts 236°
2026-04-30 21:14 55.43536 37.69809 3999 ft 259 kts 229°
2026-04-30 21:14 55.42025 37.68120 4482 ft 264 kts 194°
2026-04-30 21:14 55.40207 37.68222 5164 ft 267 kts 159°
2026-04-30 21:15 55.38606 37.69863 5817 ft 269 kts 140°
2026-04-30 21:15 55.37157 37.71980 6482 ft 272 kts 139°
2026-04-30 21:15 55.35690 37.74103 7131 ft 275 kts 140°
2026-04-30 21:15 55.34206 37.76244 7777 ft 277 kts 140°
2026-04-30 21:16 55.32709 37.78399 8418 ft 280 kts 140°
2026-04-30 21:16 55.31201 37.80573 9053 ft 282 kts 140°
2026-04-30 21:16 55.29677 37.82773 9685 ft 284 kts 140°
2026-04-30 21:16 55.28134 37.85001 10208 ft 291 kts 140°
2026-04-30 21:17 55.26538 37.87309 10458 ft 306 kts 140°
2026-04-30 21:17 55.24867 37.89721 10594 ft 324 kts 140°
2026-04-30 21:17 55.23080 37.92297 10727 ft 341 kts 140°
2026-04-30 21:17 55.21180 37.95033 10859 ft 357 kts 140°
2026-04-30 21:18 55.19223 37.97846 11126 ft 368 kts 140°
2026-04-30 21:18 55.17260 38.00660 11588 ft 372 kts 140°
2026-04-30 21:18 55.15249 38.03533 12099 ft 375 kts 140°
2026-04-30 21:18 55.13221 38.06428 12605 ft 378 kts 140°
2026-04-30 21:19 55.11180 38.09342 13103 ft 380 kts 140°
2026-04-30 21:19 55.09123 38.12274 13593 ft 383 kts 140°
2026-04-30 21:19 55.07054 38.15227 14069 ft 386 kts 140°
2026-04-30 21:19 55.04971 38.18195 14499 ft 388 kts 140°
2026-04-30 21:20 55.02873 38.21175 14918 ft 390 kts 140°
2026-04-30 21:20 55.00760 38.24169 15327 ft 392 kts 140°
2026-04-30 21:20 54.98641 38.27174 15717 ft 394 kts 140°
2026-04-30 21:20 54.96506 38.30192 16096 ft 396 kts 140°
2026-04-30 21:21 54.94362 38.33222 16471 ft 398 kts 140°
2026-04-30 21:21 54.92208 38.36262 16840 ft 400 kts 140°
2026-04-30 21:21 54.87861 38.42390 17570 ft 404 kts 140°
2026-04-30 21:22 54.85673 38.45469 17933 ft 406 kts 140°
2026-04-30 21:22 54.79023 38.54783 18989 ft 413 kts 140°
2026-04-30 21:23 54.76784 38.57915 19330 ft 415 kts 140°
2026-04-30 21:23 54.74534 38.61061 19672 ft 417 kts 140°
2026-04-30 21:23 54.70025 38.67340 20502 ft 417 kts 141°
2026-04-30 21:24 54.67761 38.70482 20862 ft 418 kts 141°
2026-04-30 21:24 54.65488 38.73628 21217 ft 420 kts 141°
2026-04-30 21:24 54.63231 38.76747 21563 ft 422 kts 141°
2026-04-30 21:24 54.60868 38.79766 21906 ft 424 kts 148°
2026-04-30 21:25 54.55801 38.85038 22574 ft 427 kts 149°
2026-04-30 21:25 54.53250 38.87678 22899 ft 429 kts 149°
2026-04-30 21:25 54.50686 38.90325 23228 ft 431 kts 149°
2026-04-30 21:26 54.45523 38.95644 23848 ft 434 kts 149°
2026-04-30 21:26 54.42941 38.98358 24096 ft 436 kts 145°
2026-04-30 21:27 54.38606 39.05632 24559 ft 440 kts 125°
2026-04-30 21:27 54.37049 39.10158 24766 ft 442 kts 115°
2026-04-30 21:27 54.35852 39.15021 25039 ft 442 kts 112°
2026-04-30 21:28 54.33508 39.24745 25714 ft 441 kts 112°
2026-04-30 21:28 54.32332 39.29609 25966 ft 443 kts 112°
2026-04-30 21:28 54.29961 39.39391 26403 ft 447 kts 112°
2026-04-30 21:29 54.29155 39.42705 26551 ft 448 kts 112°
2026-04-30 21:29 54.25142 39.59124 27364 ft 451 kts 112°
2026-04-30 21:30 54.22703 39.69036 27868 ft 452 kts 112°
2026-04-30 21:31 54.19413 39.82316 28427 ft 455 kts 112°
2026-04-30 21:31 54.16937 39.92308 28763 ft 458 kts 112°
2026-04-30 21:32 54.14450 40.02276 29073 ft 461 kts 113°
2026-04-30 21:32 54.13184 40.07304 29246 ft 461 kts 113°
2026-04-30 21:32 54.11933 40.12339 29472 ft 461 kts 110°
2026-04-30 21:32 54.10961 40.17539 29648 ft 461 kts 106°
2026-04-30 21:33 54.10062 40.22788 29836 ft 461 kts 106°
2026-04-30 21:33 54.08249 40.33268 30225 ft 461 kts 106°
2026-04-30 21:33 54.07336 40.38503 30379 ft 461 kts 106°
2026-04-30 21:34 54.06422 40.43738 30526 ft 461 kts 107°
2026-04-30 21:34 54.04593 40.54203 30816 ft 461 kts 107°
2026-04-30 21:34 54.03675 40.59428 30959 ft 461 kts 107°
2026-04-30 21:35 54.02753 40.64663 31098 ft 462 kts 107°
2026-04-30 21:35 54.01827 40.69883 31239 ft 462 kts 107°
2026-04-30 21:35 54.00893 40.75112 31375 ft 462 kts 107°
2026-04-30 21:35 53.99958 40.80330 31507 ft 462 kts 107°
2026-04-30 21:36 53.99022 40.85555 31644 ft 462 kts 107°
2026-04-30 21:36 53.98084 40.90777 31778 ft 462 kts 107°
2026-04-30 21:37 53.95266 41.06450 32175 ft 463 kts 106°
2026-04-30 21:37 53.94376 41.11700 32306 ft 463 kts 105°
2026-04-30 21:37 53.93522 41.16968 32433 ft 463 kts 105°
2026-04-30 21:37 53.92682 41.22243 32560 ft 463 kts 105°
2026-04-30 21:38 53.91840 41.27517 32687 ft 463 kts 105°
2026-04-30 21:38 53.90988 41.32786 32816 ft 463 kts 105°
2026-04-30 21:38 53.90124 41.38049 32946 ft 463 kts 105°
2026-04-30 21:38 53.89251 41.43304 33101 ft 462 kts 106°
2026-04-30 21:39 53.87492 41.53779 33206 ft 461 kts 106°
2026-04-30 21:39 53.85739 41.64150 33210 ft 461 kts 106°
2026-04-30 21:40 53.83964 41.74573 33200 ft 461 kts 106°
2026-04-30 21:40 53.82193 41.85002 33206 ft 461 kts 106°
2026-04-30 21:41 53.80406 41.95421 33207 ft 461 kts 107°
2026-04-30 21:41 53.78609 42.05836 33203 ft 461 kts 107°
2026-04-30 21:42 53.76803 42.16246 33190 ft 461 kts 107°
2026-04-30 21:42 53.74980 42.26646 33198 ft 462 kts 107°
2026-04-30 21:43 53.73148 42.37041 33194 ft 462 kts 107°
2026-04-30 21:43 53.71303 42.47423 33195 ft 462 kts 107°
2026-04-30 21:44 53.69457 42.57812 33188 ft 462 kts 107°
2026-04-30 21:44 53.67600 42.68196 33184 ft 462 kts 107°
2026-04-30 21:45 53.65875 42.78646 33183 ft 463 kts 105°
2026-04-30 21:45 53.64284 42.89159 33180 ft 463 kts 104°
2026-04-30 21:46 53.62675 42.99662 33175 ft 463 kts 105°
2026-04-30 21:46 53.61013 43.10133 33174 ft 463 kts 106°
2026-04-30 21:47 53.59321 43.20598 33176 ft 463 kts 106°
2026-04-30 21:47 53.57628 43.31067 33172 ft 464 kts 106°
2026-04-30 21:48 53.55928 43.41533 33171 ft 464 kts 106°
2026-04-30 21:48 53.54224 43.52001 33169 ft 464 kts 106°
2026-04-30 21:49 53.52511 43.62463 33165 ft 464 kts 106°
2026-04-30 21:49 53.50780 43.72905 33161 ft 464 kts 106°
2026-04-30 21:50 53.49042 43.83337 33153 ft 464 kts 107°
2026-04-30 21:50 53.47294 43.93753 33148 ft 463 kts 107°
2026-04-30 21:51 53.45545 44.04152 33141 ft 463 kts 107°
2026-04-30 21:51 53.43790 44.14540 33138 ft 463 kts 107°
2026-04-30 21:52 53.42026 44.24908 33130 ft 462 kts 107°
2026-04-30 21:52 53.40251 44.35255 33124 ft 462 kts 107°
2026-04-30 21:53 53.38480 44.45517 33123 ft 461 kts 107°
2026-04-30 21:53 53.36689 44.55825 33117 ft 461 kts 107°
2026-04-30 21:54 53.34895 44.66127 33113 ft 461 kts 108°
2026-04-30 21:54 53.33094 44.76416 33113 ft 461 kts 108°
2026-04-30 21:55 53.31281 44.86695 33110 ft 460 kts 108°
2026-04-30 21:55 53.29458 44.96953 33109 ft 460 kts 108°
2026-04-30 21:56 53.27616 45.07200 33106 ft 460 kts 109°
2026-04-30 21:56 53.25557 45.17303 33106 ft 459 kts 112°
2026-04-30 21:57 53.23306 45.27280 33106 ft 459 kts 112°
2026-04-30 21:57 53.21060 45.37253 33104 ft 459 kts 112°
2026-04-30 21:58 53.18865 45.47250 33104 ft 459 kts 112°
2026-04-30 21:58 53.16684 45.57236 33097 ft 458 kts 112°
2026-04-30 21:59 53.14483 45.67202 33094 ft 458 kts 112°
2026-04-30 22:00 53.11169 45.82043 33086 ft 458 kts 112°
2026-04-30 22:00 53.07862 45.96932 33078 ft 457 kts 112°
2026-04-30 22:01 53.05661 46.06847 33069 ft 457 kts 112°
2026-04-30 22:01 53.03451 46.16747 33067 ft 457 kts 112°
2026-04-30 22:02 53.01233 46.26630 33059 ft 456 kts 113°
2026-04-30 22:02 52.98997 46.36492 33052 ft 456 kts 113°
2026-04-30 22:03 52.96754 46.46335 33050 ft 456 kts 113°
2026-04-30 22:03 52.94508 46.56175 33043 ft 456 kts 113°
2026-04-30 22:04 52.92260 46.66009 33041 ft 456 kts 113°
2026-04-30 22:05 52.88868 46.80748 33047 ft 456 kts 114°
2026-04-30 22:05 52.86593 46.90554 33035 ft 456 kts 114°
2026-04-30 22:06 52.84309 47.00344 33031 ft 456 kts 114°
2026-04-30 22:06 52.80898 47.15018 33019 ft 456 kts 113°
2026-04-30 22:07 52.78789 47.24912 33018 ft 457 kts 112°
2026-04-30 22:07 52.76731 47.34834 33005 ft 457 kts 112°
2026-04-30 22:08 52.74633 47.44726 33004 ft 456 kts 113°
2026-04-30 22:08 52.72491 47.54585 33009 ft 456 kts 113°
2026-04-30 22:09 52.70344 47.64430 33004 ft 456 kts 114°
2026-04-30 22:09 52.68206 47.74282 33005 ft 456 kts 114°
2026-04-30 22:10 52.66066 47.84124 33003 ft 456 kts 114°
2026-04-30 22:10 52.63922 47.93951 33004 ft 456 kts 114°
2026-04-30 22:11 52.60678 48.08666 33003 ft 456 kts 114°
2026-04-30 22:12 52.58501 48.18466 33000 ft 456 kts 114°
2026-04-30 22:12 52.56317 48.28265 33008 ft 457 kts 115°
2026-04-30 22:13 52.54137 48.37991 33001 ft 457 kts 115°
2026-04-30 22:13 52.51932 48.47781 33008 ft 457 kts 115°
2026-04-30 22:14 52.49712 48.57562 33008 ft 457 kts 115°
2026-04-30 22:14 52.47478 48.67337 33014 ft 458 kts 115°
2026-04-30 22:15 52.45243 48.77108 33015 ft 458 kts 115°
2026-04-30 22:15 52.43004 48.86884 33020 ft 458 kts 116°
2026-04-30 22:16 52.40755 48.96655 33017 ft 458 kts 116°
2026-04-30 22:17 52.36223 49.16173 33026 ft 459 kts 116°
2026-04-30 22:17 52.32794 49.30790 33030 ft 459 kts 116°
2026-04-30 22:18 52.29713 49.43798 33029 ft 459 kts 117°
2026-04-30 22:19 52.26255 49.58376 33019 ft 459 kts 117°
2026-04-30 22:20 52.22796 49.72857 33014 ft 459 kts 117°
2026-04-30 22:20 52.19294 49.87377 33016 ft 459 kts 117°
2026-04-30 22:21 52.16954 49.97041 33024 ft 458 kts 118°
2026-04-30 22:21 52.14606 50.06684 33026 ft 458 kts 118°
2026-04-30 22:22 52.12256 50.16326 33021 ft 458 kts 118°
2026-04-30 22:22 52.09897 50.25951 33021 ft 458 kts 118°
2026-04-30 22:23 52.07527 50.35562 33017 ft 458 kts 118°
2026-04-30 22:23 52.05149 50.45157 33012 ft 458 kts 118°
2026-04-30 22:24 52.02770 50.54740 33010 ft 457 kts 118°
2026-04-30 22:24 52.00385 50.64307 33015 ft 457 kts 119°
2026-04-30 22:25 51.97993 50.73857 33009 ft 457 kts 119°
2026-04-30 22:25 51.95591 50.83383 33017 ft 456 kts 119°
2026-04-30 22:26 51.91932 50.97608 33019 ft 455 kts 120°
2026-04-30 22:27 51.89446 51.07026 33013 ft 455 kts 120°
2026-04-30 22:27 51.85732 51.21054 33018 ft 454 kts 120°
2026-04-30 22:28 51.82011 51.35109 33021 ft 453 kts 121°
2026-04-30 22:29 51.77030 51.53773 33026 ft 452 kts 121°
2026-04-30 22:31 51.68245 51.86204 33027 ft 448 kts 123°
2026-04-30 22:32 51.63047 51.98185 33024 ft 432 kts 136°
2026-04-30 22:32 51.59330 52.05787 33022 ft 432 kts 136°
2026-04-30 22:33 51.50045 52.24732 33028 ft 431 kts 136°
2026-04-30 22:35 51.40741 52.43578 33018 ft 431 kts 137°
2026-04-30 22:36 51.31451 52.62262 33016 ft 430 kts 137°
2026-04-30 22:37 51.23978 52.77151 33016 ft 429 kts 138°
2026-04-30 22:38 51.16501 52.91984 33013 ft 429 kts 138°
2026-04-30 22:39 51.10885 53.03088 33008 ft 429 kts 138°
2026-04-30 22:40 50.99616 53.25198 33036 ft 429 kts 138°
2026-04-30 22:41 50.90211 53.43509 33034 ft 428 kts 138°
2026-04-30 22:43 50.78940 53.65280 33024 ft 427 kts 139°
2026-04-30 22:44 50.71398 53.79740 33028 ft 426 kts 139°
2026-04-30 22:45 50.60072 54.01331 33024 ft 425 kts 139°
2026-04-30 22:47 50.48583 54.23001 33038 ft 439 kts 135°
2026-04-30 22:48 50.40752 54.37729 33040 ft 439 kts 135°
2026-04-30 22:49 50.30011 54.60989 33039 ft 454 kts 112°
2026-04-30 22:51 50.25242 54.89780 33037 ft 456 kts 110°
2026-04-30 22:52 50.22854 55.04068 33039 ft 455 kts 110°
2026-04-30 22:53 50.19632 55.23169 33039 ft 455 kts 110°
2026-04-30 22:53 50.17196 55.37453 33032 ft 454 kts 110°
2026-04-30 22:55 50.13113 55.61154 33024 ft 452 kts 110°
2026-04-30 22:56 50.09820 55.80017 33011 ft 450 kts 111°
2026-04-30 22:57 50.05675 56.03487 32996 ft 449 kts 111°
2026-04-30 22:58 50.02328 56.22195 32985 ft 449 kts 111°
2026-04-30 22:59 49.97270 56.50177 32978 ft 448 kts 111°